This is the latest recevied weather packets stored in our database for station/object IK6IHU-3. If no packets are shown the sender has not sent any weather packets the latest 10 day(s).
| Time | Temp. | Humidity | Pressure | Rain* | Wind** | Luminosity | Snow |
|---|---|---|---|---|---|---|---|
| 1777623853 | 11.67° C | 55% | 1022.9 hPa | 0 mm | - | 0 W/m² | - |
| 1777623793 | 11.67° C | 55% | 1022.8 hPa | 0 mm | - | 0 W/m² | - |
| 1777623733 | 12.22° C | 55% | 1022.9 hPa | 0 mm | - | 0 W/m² | - |
| 1777623674 | 12.22° C | 55% | 1022.9 hPa | 0 mm | - | 0 W/m² | - |
| 1777623613 | 12.22° C | 55% | 1023 hPa | 0 mm | - | 0 W/m² | - |
| 1777623553 | 12.78° C | 56% | 1022.7 hPa | 0 mm | - | 0 W/m² | - |
| 1777623493 | 12.78° C | 56% | 1023 hPa | 0 mm | - | 0 W/m² | - |
| 1777623433 | 12.22° C | 55% | 1022.7 hPa | 0 mm | - | 0 W/m² | - |
| 1777623374 | 12.22° C | 55% | 1022.8 hPa | 0 mm | - | 0 W/m² | - |
| 1777623313 | 11.67° C | 55% | 1022.9 hPa | 0 mm | - | 0 W/m² | - |
| 1777623253 | 12.22° C | 56% | 1022.6 hPa | 0 mm | - | 0 W/m² | - |
| 1777623193 | 12.22° C | 57% | 1022.8 hPa | 0 mm | - | 0 W/m² | - |
| 1777623133 | 11.67° C | 56% | 1022.8 hPa | 0 mm | - | 0 W/m² | - |
| 1777623073 | 11.67° C | 56% | 1022.8 hPa | 0 mm | - | 0 W/m² | - |
| 1777623013 | 11.11° C | 56% | 1022.9 hPa | 0 mm | - | 0 W/m² | - |
| 1777622953 | 11.67° C | 55% | 1022.7 hPa | 0 mm | - | 0 W/m² | - |
| 1777622894 | 11.67° C | 55% | 1022.8 hPa | 0 mm | - | 0 W/m² | - |
| 1777622833 | 11.67° C | 55% | 1022.8 hPa | 0 mm | - | 0 W/m² | - |
| 1777622774 | 11.67° C | 55% | 1023 hPa | 0 mm | - | 0 W/m² | - |
| 1777622714 | 11.67° C | 56% | 1023 hPa | 0 mm | - | 0 W/m² | - |
| 1777622653 | 11.67° C | 56% | 1022.9 hPa | 0 mm | - | 0 W/m² | - |
| 1777622593 | 11.67° C | 55% | 1022.9 hPa | 0 mm | - | 0 W/m² | - |
| 1777622533 | 11.67° C | 55% | 1022.9 hPa | 0 mm | - | 0 W/m² | - |
| 1777622473 | 12.22° C | 56% | 1022.8 hPa | 0 mm | - | 0 W/m² | - |
| 1777622414 | 11.67° C | 55% | 1022.8 hPa | 0 mm | - | 0 W/m² | - |
* Rain latest hour (hover to see other rain measurements)
** Current wind speed in m/s (hover to see current wind gust speed)